GFSFLT2_850_thetae_000.txt.gz
Theta_e
337 335 334 332 330 327 323 323 323 322 322 322 323 324 324 323 319 317 316 314 318 326 327 330 327 324 320 318 322 322 321 322
334 335 336 335 332 330 321 323 322 322 322 322 322 323 323 325 325 323 323 321 319 327 327 328 327 327 324 321 316 318 321 319
331 333 336 333 331 327 327 330 329 326 324 322 327 328 322 321 321 325 325 325 324 322 324 323 324 324 324 324 320 321 323 322
324 319 322 322 331 327 332 331 330 331 331 323 328 327 322 317 317 320 318 319 324 325 325 323 322 322 324 326 324 319 321 325
320 317 316 324 332 329 329 329 326 328 324 326 321 314 312 312 310 316 312 310 315 317 321 316 323 322 319 321 324 320 321 321
319 315 314 316 326 328 327 327 324 325 319 310 313 311 307 305 306 305 305 307 310 308 307 313 316 319 321 319 318 321 321 323
318 314 314 315 322 323 324 323 318 317 312 311 312 316 309 311 309 308 307 308 308 309 309 311 312 313 317 318 318 318 319 319
316 314 316 317 323 320 316 314 311 309 310 308 307 309 307 314 314 312 309 306 307 312 314 314 314 314 316 315 315 318 318 318
315 315 316 315 317 315 312 312 310 310 310 305 306 306 305 304 307 312 312 303 303 301 303 307 312 315 316 319 319 319 321 321
314 313 312 312 312 313 310 311 309 311 312 309 305 304 304 305 309 307 303 306 307 303 301 300 303 310 315 316 317 319 320 321
312 312 309 311 311 311 310 310 309 310 312 310 306 304 304 305 307 305 303 304 305 304 303 302 301 300 305 311 315 316 317 319
311 311 310 309 309 308 309 308 308 309 309 309 308 306 304 304 306 305 305 305 305 305 304 303 303 303 303 302 302 301 304 310
311 310 309 308 308 308 307 307 308 308 308 307 307 307 306 305 305 305 305 305 304 304 304 304 303 303 303 303 303 303 304 305
311 310 309 309 308 307 307 307 307 308 307 307 307 306 306 305 305 304 304 304 304 304 304 304 303 303 303 302 303 303 304 309
312 311 310 309 308 308 307 307 307 307 306 306 306 305 306 306 306 305 304 304 304 304 303 303 303 304 302 302 303 304 304 303
313 312 311 310 309 308 307 307 306 306 305 305 305 306 306 306 305 305 304 303 303 302 303 303 303 302 303 303 303 303 303 304
313 312 311 311 310 309 308 307 306 306 306 305 305 305 304 304 304 304 303 303 302 301 301 299 300 301 302 303 303 303 303 304
312 312 312 312 311 310 308 307 306 306 305 305 305 304 304 303 302 302 301 301 301 299 298 299 299 298 298 299 301 302 302 302
313 313 312 312 311 311 309 307 306 305 304 304 303 303 302 301 300 300 299 299 296 294 294 293 293 294 295 296 297 297 299 300
314 313 312 312 312 311 310 309 307 305 305 304 303 301 300 300 298 297 295 294 293 293 292 292 292 294 295 295 296 297 298 298

GFSFLT2_850_thetae_003.txt.gz
Theta_e
335 333 333 329 324 327 321 320 321 321 322 322 321 322 324 324 323 322 320 320 320 320 321 325 326 325 327 325 323 323 325 326
335 334 333 331 324 327 324 326 326 324 321 322 321 321 320 320 323 324 324 323 322 321 324 323 325 327 327 326 322 320 323 326
327 336 330 326 325 328 325 329 327 325 324 323 323 322 317 317 315 317 321 322 321 321 324 325 325 325 326 326 324 321 324 324
321 318 319 320 332 327 326 329 328 323 321 318 317 314 313 311 309 311 313 311 311 314 321 323 322 321 321 322 322 322 321 320
320 317 316 318 329 328 328 328 326 327 321 317 319 316 312 308 306 307 310 304 310 314 316 321 322 322 322 319 320 323 321 320
320 318 314 316 322 322 328 327 324 321 318 310 310 311 309 305 306 305 306 307 309 310 308 310 311 312 316 320 321 320 321 320
319 318 314 314 316 323 326 325 322 321 319 311 311 311 311 309 309 308 308 307 307 307 307 308 308 310 313 314 316 319 319 319
317 316 314 313 313 313 316 318 318 315 311 309 308 309 311 309 311 308 307 307 305 304 304 305 306 307 309 313 316 315 316 316
316 316 314 314 314 314 315 313 311 309 308 308 307 307 306 306 308 309 307 307 303 304 302 301 302 303 306 309 309 313 317 319
316 315 314 313 312 313 312 312 311 310 309 309 309 306 305 305 306 306 305 303 304 304 303 303 302 301 300 304 311 314 317 319
315 314 313 311 310 312 313 311 310 309 310 308 309 307 305 305 307 306 306 305 305 305 304 303 303 303 303 303 302 302 303 306
314 313 312 311 310 310 309 309 309 308 310 311 309 307 306 304 307 306 306 305 305 305 304 303 303 303 303 303 303 303 303 303
313 312 311 310 310 309 308 308 307 307 308 308 309 309 308 306 305 306 305 305 305 304 303 304 303 302 303 303 303 303 303 303
313 312 311 310 310 310 309 308 307 307 307 308 308 307 307 306 305 305 305 304 304 303 303 304 303 303 303 304 303 303 303 304
314 313 312 311 310 309 309 308 307 307 308 308 307 307 307 306 306 306 305 305 304 304 303 302 303 304 304 303 304 304 304 304
313 313 313 312 311 310 309 309 308 307 307 307 306 306 306 306 306 306 305 304 303 302 302 302 302 301 299 298 300 301 304 304
313 313 313 313 313 312 311 310 309 308 307 306 306 306 306 307 306 306 305 304 303 303 302 301 301 297 300 301 302 302 302 302
314 314 314 314 313 313 312 311 310 309 308 306 306 305 305 306 305 304 303 303 302 301 300 299 295 296 295 295 295 296 298 299
315 314 314 314 314 314 313 312 311 310 309 307 306 305 304 303 301 301 300 300 300 300 298 296 296 293 292 292 293 294 295 295
314 314 313 313 312 312 312 312 311 311 310 307 305 305 303 301 301 301 299 297 299 298 296 293 292 292 294 293 294 294 295 296

GFSFLT2_850_thetae_006.txt.gz
Theta_e
333 335 333 332 324 323 321 320 321 320 320 319 319 317 317 317 317 319 322 321 319 317 317 321 324 324 323 326 323 324 327 327
331 329 327 327 323 321 325 324 324 322 319 318 319 319 317 316 314 314 316 321 322 322 322 323 323 326 326 326 326 324 322 323
332 326 322 322 324 322 326 326 325 322 321 319 320 321 315 313 311 312 315 315 316 319 321 324 324 326 327 327 326 325 323 319
325 319 317 321 321 326 326 326 325 326 321 318 317 315 315 313 310 310 311 311 309 310 313 320 323 323 322 322 323 323 323 323
322 319 316 314 318 324 327 326 326 324 320 319 317 313 312 312 310 308 311 311 306 311 313 314 319 322 322 322 322 321 321 324
320 318 317 314 317 322 324 327 326 322 323 318 318 311 309 308 305 306 307 305 307 311 312 309 310 311 311 312 316 319 320 321
318 317 317 314 315 318 322 324 325 323 319 318 315 311 311 310 309 308 308 307 306 307 307 307 308 308 308 310 313 314 316 319
317 316 316 315 314 316 319 322 323 322 320 318 313 310 309 309 308 307 307 306 306 306 304 303 303 303 304 305 307 310 315 317
316 316 316 315 314 313 314 315 316 314 312 309 308 308 307 308 307 306 306 306 306 304 304 304 303 302 302 301 302 307 310 313
316 316 315 315 313 312 311 312 312 312 311 310 309 308 308 307 306 308 308 307 305 304 304 305 305 304 304 303 303 302 301 303
316 315 315 314 312 312 310 311 312 311 310 309 308 308 309 306 305 307 307 306 305 305 305 304 303 303 303 303 303 303 303 303
315 314 313 312 311 311 310 309 309 309 309 309 307 309 310 307 305 305 306 306 305 305 304 303 302 302 301 302 302 302 302 302
315 313 313 312 312 311 311 310 309 308 308 307 308 309 308 307 307 305 306 305 305 305 304 303 302 302 302 302 301 301 300 300
314 314 313 313 312 312 311 311 310 309 308 307 307 308 308 308 307 307 305 305 304 304 304 303 303 302 302 302 303 300 299 300
314 313 313 313 313 312 311 311 310 310 309 308 307 307 307 307 307 307 306 305 304 304 304 303 303 302 303 302 301 302 299 300
313 313 313 313 313 313 312 312 311 312 311 309 308 307 307 307 307 307 306 305 304 304 303 303 302 302 301 299 296 299 300 300
313 313 313 313 314 314 313 313 313 312 311 310 308 307 306 305 306 307 306 306 304 303 303 303 302 299 298 298 296 296 294 295
314 314 314 313 313 313 312 311 311 313 313 312 310 308 306 306 306 306 306 305 305 304 303 302 301 300 300 300 297 293 292 293
314 314 314 314 314 312 311 310 309 310 310 310 310 307 307 306 306 305 303 301 302 301 300 300 299 299 299 293 292 292 292 294
314 314 313 313 312 311 309 308 308 307 307 307 308 307 304 302 300 299 299 300 301 299 299 300 299 294 292 291 292 293 293 294

GFSFLT2_850_thetae_009.txt.gz
Theta_e
322 322 319 317 316 318 320 320 320 320 319 319 318 318 317 317 318 318 319 320 320 319 318 319 319 321 324 323 325 323 324 325
327 323 319 317 319 321 323 324 323 321 319 318 318 319 318 316 314 313 314 317 319 320 321 321 323 322 324 325 326 326 325 323
330 325 320 317 316 318 324 325 325 324 321 319 319 320 317 315 312 310 311 312 313 314 316 318 320 323 326 327 327 327 326 324
329 323 317 316 316 318 323 324 323 324 324 319 317 318 315 312 310 308 309 310 310 309 313 315 319 322 323 323 322 322 323 323
325 320 317 315 315 319 321 321 320 322 319 318 316 315 312 309 308 308 307 308 309 307 309 312 313 316 320 322 323 322 322 321
321 319 317 316 314 314 317 319 322 323 320 317 316 314 310 311 311 309 307 307 307 307 308 309 309 308 310 310 309 312 314 318
320 318 316 316 315 313 315 321 322 324 323 321 318 317 312 311 311 310 308 309 308 307 306 306 307 306 307 306 306 308 312 314
318 316 316 316 315 313 314 318 320 322 322 322 320 318 312 309 309 309 308 309 308 307 307 305 304 303 303 303 302 303 304 308
317 316 316 315 314 313 313 314 316 316 315 313 310 309 308 308 308 308 308 309 308 308 305 304 304 304 304 304 304 304 303 302
316 316 315 314 313 312 312 311 310 311 312 311 310 309 309 308 308 307 306 307 307 306 304 304 305 304 304 304 303 303 303 303
316 316 314 312 312 312 311 311 311 310 309 309 309 309 309 308 309 307 305 306 306 305 305 305 305 304 303 303 304 303 302 302
316 314 312 313 312 312 312 312 311 310 310 310 309 308 308 309 309 308 306 305 305 305 305 305 304 303 303 304 304 303 302 302
314 314 314 313 313 312 312 312 312 311 311 310 309 309 308 307 307 307 307 306 306 305 305 304 304 303 302 303 303 303 303 301
314 314 314 313 313 313 313 313 312 312 312 311 310 309 309 308 307 307 307 307 306 306 305 305 304 303 302 302 302 302 302 302
314 314 313 313 313 313 313 313 312 312 312 312 312 311 309 308 307 307 307 307 307 306 305 304 304 303 303 302 301 300 299 300
314 313 313 313 313 313 313 313 313 312 311 310 311 312 310 308 307 307 307 308 306 305 304 304 304 303 302 302 299 297 295 296
313 313 313 313 314 313 313 314 312 311 309 309 310 311 311 308 307 307 308 307 306 305 303 304 303 302 300 297 296 298 299 297
314 314 314 313 313 314 313 312 311 310 309 308 307 307 308 308 308 306 308 307 305 303 301 301 299 299 300 299 298 297 294 292
313 313 313 312 312 311 311 309 308 307 307 306 305 305 305 307 306 305 306 305 304 300 297 298 300 299 299 299 300 300 294 292
312 312 312 312 311 310 308 307 306 306 306 305 304 304 305 304 304 304 302 300 297 298 298 299 300 299 298 293 292 291 291 291

GFSFLT2_850_thetae_012.txt.gz
Theta_e
321 321 319 318 317 318 319 321 321 321 320 320 319 318 317 318 317 317 316 315 317 319 320 320 320 320 323 324 324 325 324 323
327 324 319 316 315 315 316 319 323 321 320 319 318 318 318 317 315 311 309 310 311 314 316 316 316 317 320 324 326 326 326 325
329 325 318 315 314 313 314 315 318 320 323 320 318 318 319 315 312 309 308 309 309 309 308 309 311 313 319 322 325 325 325 325
330 324 318 315 314 313 312 312 313 316 316 319 317 316 317 314 312 309 309 308 309 309 308 308 309 311 315 320 322 322 321 321
331 323 318 316 315 314 313 313 315 317 318 316 316 316 315 313 310 308 308 307 307 308 307 307 310 310 309 313 317 318 315 312
331 322 318 315 315 314 313 313 317 319 321 319 318 316 314 311 311 311 310 309 308 307 306 306 308 308 308 307 307 307 307 309
330 320 316 315 315 314 313 314 315 316 318 318 318 318 318 316 312 310 310 309 308 308 308 307 306 305 305 304 304 303 304 304
326 318 316 316 315 313 313 313 313 313 314 316 317 316 313 311 309 308 308 308 308 308 308 307 306 305 304 304 304 304 304 304
321 317 316 315 314 312 312 311 311 311 311 312 312 311 310 309 309 308 308 307 307 308 308 307 305 304 304 305 305 305 305 304
319 317 316 314 312 312 311 311 311 311 310 310 309 309 309 309 308 307 308 308 306 306 306 306 304 304 305 305 304 304 304 304
317 316 315 312 312 312 312 312 311 311 311 311 310 309 309 308 308 307 308 307 307 306 305 305 305 305 305 304 304 304 304 304
316 315 313 313 313 312 312 312 312 312 312 312 311 311 310 309 308 308 308 308 307 306 306 305 305 305 304 304 304 304 304 303
315 314 313 313 313 313 313 313 313 313 312 312 311 311 311 310 309 308 307 308 307 307 306 306 305 305 304 304 304 303 303 303
314 314 314 313 313 313 312 312 312 313 313 312 312 311 310 310 310 309 308 308 307 307 307 307 306 306 304 304 303 304 303 303
314 313 313 313 312 312 312 312 313 313 313 311 311 309 309 309 310 309 308 307 307 307 307 307 307 306 305 304 303 303 303 302
313 313 313 312 312 312 313 313 312 312 311 310 309 308 308 308 308 310 309 307 307 307 308 307 306 305 304 303 303 302 301 300
313 313 313 313 313 313 313 312 310 309 309 308 307 306 306 306 306 306 307 307 306 307 307 305 305 304 303 301 299 297 297 296
313 314 313 313 312 312 311 309 308 308 306 305 305 305 305 304 304 304 305 306 305 304 305 304 302 301 299 297 298 298 296 297
313 312 312 311 310 308 307 306 305 304 303 302 302 303 303 303 302 303 305 304 302 301 299 299 299 299 298 299 299 298 298 296
311 310 310 308 306 305 305 303 303 302 301 300 301 302 302 302 302 303 303 301 299 298 298 298 299 298 297 298 297 295 292 292

GFSFLT2_850_thetae_015.txt.gz
Theta_e
321 319 317 316 315 313 315 319 321 321 320 319 318 318 318 318 317 316 313 310 310 313 317 319 320 320 321 321 323 325 325 324
324 322 317 315 314 313 312 312 319 321 321 319 317 316 317 318 316 314 309 309 309 309 309 310 312 313 316 319 321 325 326 325
327 324 318 315 314 313 311 311 313 314 316 318 317 316 316 318 314 311 308 309 309 309 309 308 309 311 312 316 321 323 324 324
328 326 318 316 315 313 311 312 313 314 315 315 317 317 316 316 314 312 310 309 308 307 309 308 307 309 311 311 316 320 321 321
330 328 319 315 315 314 313 312 313 314 315 316 316 315 315 315 313 310 310 311 310 308 308 307 306 309 309 309 308 308 309 308
331 329 319 315 315 314 314 314 315 316 315 315 316 317 317 317 316 315 312 310 310 309 308 308 308 307 306 306 306 306 306 305
331 329 319 316 315 314 313 314 314 313 313 312 313 313 313 313 311 311 309 308 308 308 308 308 307 307 305 304 303 303 303 303
330 328 318 316 315 312 312 312 312 311 311 310 311 311 311 310 310 309 309 308 308 308 307 307 307 307 305 304 304 304 305 305
327 327 318 316 314 312 312 311 311 311 311 311 310 310 309 309 309 308 308 307 307 308 307 307 306 306 304 304 305 305 304 304
327 324 317 315 312 312 312 311 311 311 311 311 311 311 311 310 309 309 308 307 308 308 307 306 306 306 305 304 305 304 304 304
326 320 316 314 312 312 312 311 312 312 312 312 311 311 311 311 310 310 309 308 308 308 307 307 306 306 305 305 305 305 304 304
323 318 315 312 313 313 312 313 313 312 312 312 312 312 312 311 310 310 309 309 308 308 308 307 307 306 305 305 305 304 304 304
317 316 313 313 313 313 313 313 312 312 312 313 313 312 312 311 311 310 309 308 308 308 308 308 307 306 305 305 305 305 304 304
315 314 313 312 312 311 311 311 312 312 313 313 312 312 311 310 309 309 309 309 310 308 308 309 308 307 306 306 306 306 305 304
313 312 312 311 311 311 311 312 313 313 313 312 311 309 308 307 307 307 307 307 308 310 308 307 310 308 307 306 306 306 306 304
312 312 312 312 312 312 312 312 311 310 309 308 307 306 305 305 305 305 305 305 305 306 308 307 308 308 306 306 305 305 304 305
312 312 312 312 312 312 311 310 308 306 305 304 304 303 302 301 301 302 302 303 303 304 305 306 306 306 304 304 304 303 302 300
313 312 312 311 310 309 309 308 307 304 303 302 301 301 300 300 301 302 302 302 303 304 304 303 301 300 301 300 299 301 299 297
312 312 311 309 310 309 307 305 303 302 301 300 300 300 300 301 302 301 301 302 302 301 300 298 298 298 298 298 298 298 298 297
311 310 309 310 310 308 303 302 302 301 300 299 299 299 300 301 301 300 300 300 299 298 298 298 298 297 296 296 295 295 294 294

GFSFLT2_850_thetae_018.txt.gz
Theta_e
324 318 316 315 314 313 315 317 320 320 320 319 318 317 317 318 318 317 313 311 311 311 310 312 314 315 315 317 320 322 327 328
325 320 319 315 315 313 312 312 317 318 320 319 318 317 317 318 317 314 312 309 309 310 310 310 309 310 311 313 317 320 325 327
325 328 317 315 315 314 312 311 312 314 313 314 317 321 318 318 319 315 312 310 309 309 308 309 309 308 309 310 312 322 324 324
328 325 318 315 314 314 314 313 325 321 319 315 320 315 315 316 315 314 311 309 310 310 309 308 308 315 316 311 318 312 318 322
330 329 319 315 317 322 326 325 324 322 314 316 318 315 321 323 323 322 318 314 315 311 310 315 311 309 315 310 312 308 316 316
334 331 322 316 320 325 324 324 326 326 327 313 320 325 324 322 322 321 320 320 313 315 316 309 308 308 307 306 305 308 313 315
336 333 327 317 315 316 313 314 325 323 324 323 313 323 323 320 317 314 317 318 318 318 317 317 314 309 308 307 306 305 305 309
337 332 329 317 315 313 312 312 318 318 322 319 311 311 316 316 316 316 316 316 316 316 316 313 313 310 307 306 305 306 308 307
335 330 329 318 315 312 312 313 311 314 316 312 312 311 312 311 316 316 316 316 313 315 316 314 312 312 309 307 305 305 306 305
330 327 328 318 315 312 313 315 311 311 312 312 312 312 311 311 313 315 314 313 315 316 316 315 314 313 311 309 308 308 308 307
326 327 326 317 314 313 312 311 312 314 313 313 312 312 312 312 312 313 313 314 314 315 315 315 314 312 311 309 309 308 307 307
325 327 322 317 313 312 312 312 312 313 312 312 313 313 313 312 312 312 313 315 315 314 314 314 314 313 311 309 308 309 308 308
324 322 318 315 313 313 314 314 313 313 313 313 312 312 312 311 310 310 310 313 313 312 314 314 314 314 312 310 309 309 309 308
316 317 316 313 312 311 311 311 312 312 313 312 312 313 310 307 307 307 309 310 311 312 312 313 314 313 313 311 310 310 310 309
315 314 312 312 311 312 313 313 313 312 311 311 310 308 306 304 302 302 302 305 308 309 310 311 312 313 313 311 311 310 310 309
312 312 312 312 312 311 310 310 310 309 309 308 307 305 304 302 301 300 300 303 306 307 308 309 310 310 311 311 311 310 310 310
312 312 312 311 310 310 309 310 310 311 312 311 307 305 304 303 300 299 300 301 303 302 303 306 306 306 307 307 308 307 307 307
312 312 311 310 310 309 308 307 307 307 306 305 304 303 302 302 302 300 301 301 302 302 302 302 302 301 302 302 303 301 302 302
312 312 311 310 309 308 308 305 306 305 304 303 302 301 301 302 300 302 302 301 301 300 300 299 299 299 298 298 298 298 297 296
312 312 311 309 308 305 302 305 305 305 303 302 301 301 300 301 301 301 301 301 300 299 298 297 294 295 293 292 292 293 294 292

GFSFLT2_850_thetae_021.txt.gz
Theta_e
327 321 316 315 314 312 312 315 320 321 320 319 318 317 316 317 318 317 314 309 309 309 309 309 309 309 309 310 311 313 316 326
330 330 329 329 326 312 311 313 316 314 317 318 317 318 319 317 319 318 313 311 310 309 309 308 309 309 308 308 309 313 324 325
331 329 328 327 326 319 317 314 315 319 322 317 322 328 327 327 324 317 315 311 310 310 310 309 309 310 315 313 309 320 323 322
331 333 329 327 324 327 327 326 328 328 329 329 328 328 327 320 323 321 319 316 315 316 314 312 315 318 318 317 318 320 319 319
330 336 331 329 327 324 326 326 327 328 329 329 327 327 328 326 326 325 325 323 323 321 320 319 319 318 318 317 316 317 316 317
331 336 329 317 326 326 325 325 327 326 328 327 326 325 325 325 323 322 320 320 320 320 320 320 321 320 317 315 313 313 313 315
330 334 338 331 323 326 325 325 326 326 326 325 323 323 323 322 321 320 319 318 319 318 318 318 319 318 316 314 313 311 311 311
330 333 337 333 325 326 324 326 325 325 323 320 312 317 322 322 320 319 319 317 317 318 318 318 318 316 315 314 313 311 310 311
331 333 336 333 326 325 322 322 320 321 320 320 318 314 316 314 319 319 319 318 317 318 318 318 318 317 316 314 312 312 311 310
329 333 335 332 325 323 321 321 320 319 319 319 319 315 313 313 318 318 318 318 318 318 317 317 317 317 316 315 313 312 311 311
328 332 333 330 325 322 322 321 319 320 320 318 318 318 315 314 314 316 317 317 317 317 317 316 316 316 316 315 314 312 311 311
327 331 331 327 324 321 319 318 317 317 317 316 316 316 316 316 316 315 316 316 315 315 316 316 316 316 315 315 314 313 311 311
328 328 325 322 320 318 317 317 316 316 316 316 316 315 314 313 313 312 312 312 312 312 313 314 314 314 315 315 315 314 313 311
319 318 317 316 315 315 315 315 315 316 316 315 313 312 311 311 310 309 309 309 309 309 310 311 312 312 313 314 314 313 313 313
317 317 316 315 313 315 315 315 315 314 314 313 313 312 311 310 310 309 308 308 308 308 308 309 310 310 311 312 313 313 313 312
316 316 315 315 313 313 313 314 314 314 314 313 312 311 309 308 306 306 307 307 307 307 308 309 309 308 308 309 310 311 312 312
317 316 315 314 313 313 313 313 313 312 311 310 309 307 306 305 305 305 306 306 306 307 307 306 305 306 306 306 306 307 308 306
316 315 315 314 314 313 312 311 310 309 308 307 306 306 305 304 304 304 305 305 305 305 303 301 301 301 301 300 302 302 302 301
316 315 315 314 312 311 310 309 309 308 307 306 305 304 303 302 303 304 304 304 302 302 300 299 298 298 299 297 295 296 297 296
316 315 314 313 313 312 311 310 309 308 306 305 303 302 301 302 303 303 302 301 301 300 298 297 297 296 295 296 296 295 294 294

GFSFLT2_850_thetae_024.txt.gz
Theta_e
317 318 319 319 313 311 310 315 318 319 319 318 317 317 317 315 316 316 314 312 309 309 309 309 309 309 309 308 308 309 313 323
330 330 328 328 327 312 310 311 312 314 314 315 326 328 327 327 323 318 315 313 311 310 310 310 310 309 311 313 311 309 324 324
330 329 328 327 325 324 324 322 329 327 329 325 330 328 328 326 323 323 321 319 316 315 315 314 312 315 318 317 316 320 322 321
330 330 326 324 324 327 328 327 327 328 329 328 329 325 327 324 326 325 324 322 321 322 319 319 319 319 319 317 318 318 318 313
332 330 322 331 324 325 327 327 327 328 330 327 327 327 327 326 324 323 321 321 321 321 320 320 320 319 316 317 316 314 313 316
333 332 326 318 328 326 325 326 327 328 328 326 318 324 323 319 322 317 320 319 319 319 319 319 319 319 319 317 314 312 311 313
330 332 335 333 318 327 324 322 327 327 327 324 313 315 315 316 317 319 319 318 318 318 317 317 317 317 317 316 316 313 312 310
330 333 331 331 327 327 322 325 326 325 324 322 313 314 315 315 315 315 315 318 318 317 317 318 318 318 318 316 315 314 312 310
330 331 336 334 331 326 323 324 322 322 321 320 319 317 315 314 314 315 317 318 316 315 317 318 317 317 318 317 316 315 313 312
330 332 334 335 330 326 322 322 321 320 320 320 320 319 318 315 314 316 317 317 315 315 315 317 317 316 316 317 317 316 314 312
327 330 334 334 330 326 323 322 320 319 320 320 318 318 317 316 315 314 315 315 313 313 316 317 317 317 316 317 316 317 316 314
326 331 333 331 326 324 320 319 318 318 318 317 317 316 316 316 313 312 312 312 312 311 311 312 313 312 313 312 313 313 314 315
330 330 329 325 322 319 318 317 317 316 316 316 316 315 315 313 312 311 311 310 310 311 309 307 309 310 313 314 314 315 316 315
321 320 318 317 317 316 316 316 315 315 315 316 314 314 313 313 312 311 309 309 309 307 307 309 310 311 312 312 313 313 313 313
318 317 317 316 313 316 315 314 315 315 314 314 315 314 314 311 309 307 306 306 306 305 304 306 308 308 310 311 311 311 311 311
317 317 316 316 314 313 313 314 314 314 314 314 313 311 308 307 306 305 305 305 305 304 307 308 308 308 308 307 308 307 308 309
317 316 316 315 315 315 314 314 312 310 310 309 309 307 306 306 305 304 304 304 304 306 306 307 306 304 302 301 301 303 302 304
317 316 316 315 315 313 312 311 310 310 309 308 307 306 305 303 302 302 302 304 305 305 304 302 300 299 298 299 299 298 298 299
317 317 316 315 314 313 313 311 311 309 308 307 306 304 301 300 301 302 303 303 302 301 300 300 298 297 297 296 295 295 295 295
315 316 315 313 312 312 312 311 309 308 307 306 304 301 300 300 302 303 301 300 300 300 299 298 297 297 297 296 295 295 295 295

GFSFLT2_850_thetae_027.txt.gz
Theta_e
319 317 318 316 311 309 311 312 313 314 314 314 319 323 323 322 319 316 314 314 312 310 310 310 310 310 310 311 311 308 316 325
330 327 324 323 318 310 310 313 317 319 321 327 326 324 324 322 324 322 322 319 318 315 316 316 314 313 316 316 314 314 322 322
329 327 320 325 325 326 319 321 320 321 326 328 327 325 323 322 325 324 322 319 320 320 318 318 318 318 317 316 316 319 320 320
330 328 320 324 325 326 327 327 328 327 324 323 326 324 326 325 323 322 319 320 320 318 316 316 318 317 318 317 314 314 315 317
329 321 327 328 325 326 327 327 326 326 329 327 323 325 325 322 319 317 317 318 317 317 318 318 318 317 318 318 316 314 312 313
331 328 316 324 328 326 326 327 327 328 328 324 315 318 319 315 316 315 316 318 318 318 318 316 316 316 316 317 317 315 313 311
330 328 318 319 320 324 322 326 326 326 326 322 313 315 315 315 314 314 315 316 317 316 316 314 316 317 317 317 317 316 315 314
329 330 327 325 322 323 319 322 326 324 324 321 317 314 315 314 314 314 315 316 317 317 317 315 316 317 317 317 317 317 317 316
330 332 331 326 329 325 322 325 324 323 322 321 320 318 318 315 314 314 315 315 315 315 314 312 314 314 317 316 316 317 317 317
331 330 329 325 328 326 323 321 321 320 320 320 320 320 319 318 317 315 313 313 312 312 312 311 312 314 314 313 316 316 316 316
329 331 331 329 328 325 323 322 321 318 320 320 319 319 319 318 316 315 312 313 312 312 311 311 313 313 314 313 309 308 310 314
328 331 331 329 327 325 322 319 319 318 318 317 317 317 316 315 314 313 312 312 311 311 310 311 311 310 309 309 309 308 311 311
325 328 329 328 323 320 317 318 317 316 315 316 316 315 314 314 313 312 312 310 308 307 306 305 304 305 309 308 309 311 310 311
326 327 323 318 317 316 316 316 315 316 316 316 314 314 314 313 312 309 308 306 305 305 305 305 303 303 306 307 308 308 308 309
317 316 315 315 314 315 315 314 314 315 314 314 313 312 311 310 307 306 306 305 305 304 304 304 304 307 308 307 307 307 305 306
316 316 316 315 315 315 314 314 313 313 312 310 309 309 308 308 307 306 304 301 303 303 303 304 306 306 305 304 300 299 299 301
316 316 316 315 315 315 314 313 312 311 310 310 309 308 308 307 306 300 298 300 301 303 304 303 303 301 300 299 297 297 298 298
317 316 316 315 314 313 313 312 311 311 311 310 309 307 306 305 298 300 301 302 302 301 301 300 300 299 298 297 296 295 295 295
317 316 316 315 314 312 312 311 310 309 309 307 306 306 303 298 299 301 301 300 300 299 299 299 299 297 297 296 296 296 295 295
315 314 314 313 311 311 310 309 308 307 305 304 303 300 299 299 300 299 298 298 298 299 299 297 297 296 295 295 296 296 295 296

GFSFLT2_850_thetae_030.txt.gz
Theta_e
316 317 314 311 309 309 310 312 313 313 312 313 316 317 317 316 317 318 318 316 316 315 316 314 314 312 312 315 314 311 321 324
325 319 318 316 311 309 311 312 314 314 316 320 317 316 318 318 317 317 315 316 316 315 313 313 314 316 317 315 315 317 322 323
328 323 321 324 325 323 322 321 320 318 319 319 317 318 318 316 316 316 315 316 316 315 315 315 314 314 314 314 314 314 317 318
328 323 321 324 326 327 326 326 324 324 323 320 316 318 321 319 317 314 315 315 316 315 315 315 314 314 314 315 315 314 314 312
328 320 324 324 325 327 327 327 326 325 327 325 317 318 318 316 316 314 314 314 315 315 315 315 314 314 313 314 315 315 314 313
329 319 319 324 327 325 325 326 326 326 327 325 316 319 318 315 315 314 314 316 316 316 316 316 315 314 315 315 315 316 316 315
330 323 317 317 319 324 325 326 326 325 326 326 317 315 317 315 315 315 316 317 317 317 317 316 315 313 313 314 314 315 317 317
330 326 319 323 321 322 321 321 326 326 326 324 320 316 315 315 315 315 315 316 316 316 316 315 312 312 312 313 315 315 315 316
331 329 327 325 323 323 326 322 324 324 323 322 321 320 319 319 318 316 315 314 313 312 312 312 312 312 312 313 315 316 316 314
332 330 326 328 323 323 325 321 324 322 321 320 320 319 320 319 319 317 315 314 313 312 313 312 311 310 311 311 312 314 314 313
330 330 330 326 325 325 323 322 321 321 320 320 320 320 319 318 316 315 314 314 313 312 312 310 308 307 306 305 305 306 305 306
331 330 328 328 326 324 322 321 321 319 318 317 317 316 315 314 314 313 313 313 312 312 309 307 304 303 303 302 301 301 303 305
328 326 325 324 324 322 320 317 316 315 316 315 314 314 314 313 313 312 311 310 307 306 306 305 303 303 301 301 301 302 305 306
317 317 316 316 316 316 316 315 315 315 315 315 314 313 313 311 310 309 307 306 305 305 304 302 303 302 303 306 305 304 305 306
315 315 315 315 314 314 314 313 313 313 313 313 312 311 310 309 308 307 306 306 304 300 298 299 302 303 304 302 301 300 298 300
315 315 315 315 315 315 313 312 313 312 312 311 311 310 309 308 308 306 304 298 297 300 302 302 301 301 300 300 299 298 296 297
316 316 315 315 315 314 314 313 312 312 311 311 310 308 307 307 305 299 295 296 300 301 300 299 298 299 299 298 298 297 296 295
317 316 316 316 315 315 314 312 312 311 310 309 308 307 306 303 298 295 297 296 298 298 298 299 299 298 297 296 296 296 296 295
316 315 315 315 314 313 311 311 309 308 307 306 305 303 299 298 298 298 298 297 297 297 298 297 297 297 296 295 295 295 295 295
314 314 314 313 313 312 310 309 308 306 304 303 301 300 300 300 299 298 297 296 296 296 296 296 296 294 294 294 294 294 295 295

GFSFLT2_850_thetae_033.txt.gz
Theta_e
314 313 311 309 308 309 310 311 311 311 311 315 316 316 315 315 315 313 312 313 314 313 311 311 312 314 316 315 315 316 319 319
317 315 312 309 308 309 309 311 312 314 318 317 317 317 316 315 314 312 313 313 313 313 313 312 312 312 312 313 313 313 318 320
322 318 321 318 315 316 316 317 317 316 318 317 317 317 316 315 314 313 314 314 314 314 313 314 314 313 313 312 312 312 312 311
326 318 321 326 326 326 325 324 322 320 320 315 316 317 316 315 315 314 315 315 316 316 316 316 316 314 314 313 313 312 312 312
327 319 323 324 325 325 324 323 322 322 322 320 315 316 317 316 316 315 315 316 317 317 317 317 317 316 314 315 316 316 315 313
326 321 323 325 324 323 323 322 323 323 323 324 320 315 317 317 316 315 316 317 318 318 317 317 317 316 313 313 315 316 316 316
328 321 321 318 318 321 320 322 323 325 325 325 325 318 317 317 315 315 315 315 315 315 315 314 314 313 312 312 312 313 315 316
329 323 321 321 321 322 323 320 322 325 326 325 325 322 318 318 317 316 314 314 314 314 313 312 312 312 312 312 311 311 314 316
329 323 326 323 322 325 325 322 322 324 324 324 323 321 320 319 319 319 318 316 315 313 312 312 312 313 311 308 308 308 309 311
329 324 322 328 327 327 324 324 324 324 324 323 322 321 320 320 319 318 317 316 315 313 312 313 312 310 308 306 304 303 302 302
328 327 328 327 324 326 325 322 323 321 320 321 321 320 320 318 317 316 314 313 312 312 312 310 309 309 306 304 304 303 303 302
330 330 328 326 325 326 322 321 321 320 319 319 319 318 317 315 314 313 313 313 311 309 307 307 306 304 303 301 299 299 300 306
330 327 326 326 325 323 322 320 316 315 315 315 315 314 314 313 312 310 309 308 307 307 306 305 305 302 299 298 299 302 303 301
320 320 319 319 317 316 315 314 314 314 314 313 312 311 311 310 309 309 308 308 305 305 303 299 298 300 301 301 300 299 300 298
315 315 315 314 314 314 314 313 312 311 311 311 310 310 310 310 309 307 307 304 297 296 297 299 300 299 299 299 299 299 298 297
315 315 315 315 314 314 313 313 313 313 312 312 311 310 309 308 306 303 297 295 294 295 297 298 299 299 297 298 298 297 297 296
316 316 315 315 315 314 314 314 312 312 311 311 310 309 307 305 301 297 296 296 296 295 296 297 298 298 297 297 296 295 295 295
316 316 315 315 314 314 313 312 311 311 310 309 307 304 302 299 297 296 295 295 295 295 295 296 297 296 297 296 295 295 295 296
316 315 314 314 313 312 312 311 309 308 307 305 300 298 297 297 297 298 293 294 294 295 295 295 294 294 293 293 294 293 293 294
314 313 312 312 311 310 309 308 307 306 303 303 301 299 298 297 298 296 293 294 293 293 293 293 292 291 291 292 291 290 291 292

GFSFLT2_850_thetae_036.txt.gz
Theta_e
313 312 311 309 309 310 311 312 313 313 312 315 315 315 314 314 312 312 312 312 311 312 312 311 311 311 311 311 311 312 314 318
314 311 310 308 309 309 310 311 311 314 316 315 316 315 315 314 313 313 314 313 313 312 312 313 313 313 312 312 311 312 312 311
314 313 310 309 309 310 312 313 315 317 316 316 318 317 316 315 314 314 314 313 313 314 314 315 315 314 313 313 312 312 312 312
319 319 318 317 318 317 317 318 315 317 317 317 318 317 316 316 315 314 315 315 316 316 316 316 316 316 315 313 313 313 312 313
320 320 322 324 321 321 321 319 320 322 322 319 315 316 317 317 316 315 315 315 316 316 316 316 316 316 315 312 312 313 313 313
322 321 322 324 325 323 322 322 322 324 325 324 324 319 316 317 316 316 315 316 316 316 316 316 315 314 312 312 312 312 312 312
325 321 323 325 325 326 326 324 324 326 325 325 325 323 318 316 316 316 317 316 315 315 315 314 313 312 312 312 312 311 309 310
327 322 325 326 326 325 325 325 326 327 327 326 325 323 320 320 318 318 318 316 316 315 314 312 312 312 313 312 311 309 306 305
328 324 327 327 326 325 325 324 324 326 327 326 326 323 320 320 320 319 318 318 317 315 314 313 312 312 311 311 310 308 306 304
329 326 328 325 326 325 325 324 325 325 324 325 325 323 321 320 320 319 317 315 314 313 312 312 310 309 309 308 307 306 303 302
329 327 327 323 324 321 324 323 323 323 321 321 322 321 320 319 317 314 313 312 310 310 309 308 308 307 306 305 305 302 299 299
329 327 326 322 323 323 321 320 320 319 318 318 317 317 315 314 313 312 310 309 308 308 307 304 304 303 301 299 298 297 298 301
328 326 325 324 320 318 320 319 315 314 313 313 313 312 310 310 309 309 309 309 308 307 304 300 297 297 297 296 296 300 298 297
321 320 317 316 315 315 314 313 312 311 311 310 310 310 310 310 310 309 308 307 304 299 295 294 294 295 297 297 297 296 298 297
314 314 313 312 311 311 310 311 312 312 312 311 311 311 311 309 307 306 302 297 296 295 294 294 294 294 296 297 297 297 297 296
315 315 314 314 313 314 314 313 312 312 311 311 311 310 307 301 299 297 296 296 295 294 294 294 295 296 296 296 296 297 296 295
316 315 315 315 315 314 314 312 312 311 311 310 308 304 300 298 297 297 297 296 293 293 293 294 295 296 295 295 295 295 295 294
315 315 315 315 314 313 312 311 310 309 308 305 303 301 300 300 298 298 297 297 293 293 293 294 295 294 293 293 293 293 294 293
316 315 314 313 311 311 310 309 308 306 304 303 301 300 300 299 298 298 298 297 295 293 293 293 292 292 291 291 291 291 291 290
314 313 312 310 309 308 307 306 304 303 302 301 300 300 299 299 298 298 297 296 293 293 293 293 292 291 290 290 290 290 289 290

GFSFLT2_850_thetae_039.txt.gz
Theta_e
317 314 312 311 310 310 312 313 314 312 314 315 315 315 314 312 313 313 312 312 312 311 311 312 312 312 312 311 311 310 310 310
313 312 310 309 310 311 313 314 313 315 316 316 316 315 314 313 313 313 313 312 312 313 313 313 313 313 313 313 313 313 313 311
312 310 309 309 310 311 312 312 315 316 316 317 316 315 314 313 313 313 313 313 313 314 315 315 315 314 314 313 312 312 312 313
313 310 309 309 310 312 313 315 318 317 316 317 317 316 316 316 315 314 314 315 315 316 316 316 316 315 314 313 312 312 312 312
317 316 313 315 316 318 320 318 319 320 320 316 317 318 319 317 317 316 315 315 316 316 316 316 316 315 313 312 312 313 313 312
319 321 323 323 324 324 324 323 323 325 325 325 323 321 322 321 319 317 316 316 315 315 315 316 315 313 312 312 313 313 312 311
321 323 324 324 325 326 326 326 326 326 327 327 326 324 322 321 320 317 317 317 316 315 315 315 314 312 312 313 313 312 312 311
324 323 324 325 325 325 326 326 326 327 326 325 325 325 323 321 320 318 318 318 317 316 315 314 314 313 313 312 312 310 309 308
327 324 325 325 325 326 323 324 324 325 325 324 324 324 323 321 320 320 319 318 316 314 313 312 311 310 310 310 309 308 307 306
327 326 325 327 325 323 319 320 323 324 324 323 323 323 321 320 319 317 315 313 312 310 309 308 308 307 306 305 305 304 303 300
326 327 326 326 324 322 320 322 323 321 320 319 319 318 317 316 314 312 310 309 309 308 308 307 305 302 300 298 297 297 296 297
325 327 326 325 323 322 322 319 318 316 315 314 314 314 313 311 310 310 309 308 307 305 303 299 296 295 295 295 295 295 296 298
325 327 327 324 322 321 318 317 313 311 311 311 310 310 310 310 310 309 306 303 300 297 296 295 295 294 295 298 298 296 301 296
327 324 315 315 316 315 314 312 311 311 311 311 311 311 310 310 307 302 298 297 297 297 296 295 294 294 295 298 298 297 298 298
314 312 312 312 312 311 311 311 311 311 311 311 311 310 310 306 302 299 297 298 297 296 295 294 294 295 294 297 297 297 297 296
313 314 313 313 313 313 314 313 312 311 311 310 310 308 303 300 300 299 298 298 297 297 295 293 292 297 296 296 295 296 295 295
315 315 315 315 314 314 313 312 311 311 310 309 304 302 300 299 299 298 298 298 298 297 295 293 293 295 296 295 295 295 295 294
315 315 315 315 314 313 311 310 309 307 306 304 302 301 300 300 299 299 298 298 298 297 295 293 292 292 292 292 293 293 293 292
316 315 315 313 311 310 309 308 306 303 302 301 301 300 299 299 299 298 297 298 297 295 294 294 293 292 291 291 290 290 291 291
315 315 313 311 308 308 306 303 302 301 301 300 300 299 299 299 298 297 297 297 296 295 294 294 293 292 291 290 290 290 290 290